カタログに戻る

STARLINK-35336

運用中通信VLEO
NORAD 66006·PAYLOAD·🇺🇸 United States

打ち上げ Oct 16, 2025 から Cape Canaveral Space Force Station

Loading…

次のパス (今後24時間)

TLE

最新Source: CelesTrak SupGP

元期: Sep 14, 2026, 22:39 UTC

1 66006C 25232B   26257.94423611  .00042835  00000+0  12661-2 0  2570
2 66006  53.1591 301.5809 0001133  80.6644  49.8794 15.34356941    19

AllMySatでSTARLINK-35336をリアルタイム追跡

Download on the App Store